Orlando, FL

9:17 AM EDT on June 23, 2017 (GMT -0400)
Executive

Weather History for KORL - July, 2013

Change the Weather History Date:

Tuesday, July 30, 2013

  Actual Average Record
Temperature  
Mean Temperature 83 °F -  
Max Temperature 91 °F 89 °F 97 °F (1999)
Min Temperature 75 °F 72 °F 73 °F (1997)
Cooling Degree Days 18    
Growing Degree Days 33 (Base 50)    
Moisture  
Dew Point 74 °F    
Average Humidity 77    
Maximum Humidity 97    
Minimum Humidity 48    
Precipitation  
Precipitation 0.01 in - - ()
Sea Level Pressure  
Sea Level Pressure 30.16 in    
Wind  
Wind Speed 3 mph (ESE)    
Max Wind Speed 15 mph    
Max Gust Speed 18 mph    
Visibility 10 miles    
Events      
Averages and records for this station are not official NWS values.
T = Trace of Precipitation, MM = Missing Value Source: NWS Daily Summary

Daily Weather History Graph

Daily Weather History Graph

Search for Another Location

Airport or City:

Trip Planner

Search our weather history database for the weather conditions in past years. The results will help you decide how hot, cold, wet, or windy it might be!

Date:

Astronomy

Jul. 30, 2013 Rise Set
Actual Time 6:45 AM EDT 8:17 PM EDT
Civil Twilight 6:20 AM EDT 8:42 PM EDT
Nautical Twilight 5:49 AM EDT 9:13 PM EDT
Astronomical Twilight 5:17 AM EDT 9:45 PM EDT
Moon 12:58 AM EDT (7/30) 2:37 PM EDT (7/30)
Length of Visible Light 14h 22m
Length of Day
13h 31m
Last Quarter, 41% of the Moon is Illuminated
Jul 30
Last Quarter
Aug 6
New
Aug 14
First Quarter
Aug 20
Full
Aug 28
Last Quarter

Hourly Weather History & Observations

Time (EDT) Temp. Heat Index Dew Point Humidity Pressure Visibility Wind Dir Wind Speed Gust Speed Precip Events Conditions
12:53 AM 78.1 °F - 75.9 °F 93% 30.18 in 10.0 mi Calm Calm - N/A   Clear
1:53 AM 78.1 °F - 75.9 °F 93% 30.17 in 10.0 mi Calm Calm - N/A   Clear
2:53 AM 77.0 °F - 75.9 °F 96% 30.16 in 10.0 mi Calm Calm - N/A   Clear
3:53 AM 78.1 °F - 75.9 °F 93% 30.15 in 10.0 mi Calm Calm - N/A   Clear
4:53 AM 75.9 °F - 75.0 °F 97% 30.14 in 9.0 mi Calm Calm - N/A   Clear
5:53 AM 75.9 °F - 75.0 °F 97% 30.15 in 10.0 mi Calm Calm - N/A   Clear
6:53 AM 77.0 °F - 75.0 °F 94% 30.17 in 10.0 mi Calm Calm - N/A   Clear
7:53 AM 78.1 °F - 75.9 °F 93% 30.18 in 10.0 mi Calm Calm - N/A   Clear
8:53 AM 79.0 °F - 77.0 °F 94% 30.19 in 10.0 mi Calm Calm - N/A   Clear
9:53 AM 82.9 °F 90.8 °F 75.9 °F 79% 30.20 in 10.0 mi Calm Calm - N/A   Clear
10:53 AM 84.9 °F 93.3 °F 75.0 °F 72% 30.20 in 10.0 mi Calm Calm - 0.01 in   Clear
11:53 AM 87.1 °F 94.5 °F 73.0 °F 63% 30.20 in 10.0 mi East 4.6 mph - N/A   Clear
12:53 PM 89.1 °F 95.0 °F 71.1 °F 55% 30.19 in 10.0 mi ESE 5.8 mph - N/A   Partly Cloudy
1:53 PM 91.0 °F 95.6 °F 69.1 °F 48% 30.17 in 10.0 mi Calm Calm - N/A   Clear
2:53 PM 91.0 °F 97.6 °F 71.1 °F 52% 30.15 in 10.0 mi ESE 6.9 mph - N/A   Mostly Cloudy
3:53 PM 91.0 °F 100.4 °F 73.9 °F 57% 30.12 in 10.0 mi ESE 15.0 mph 18.4 mph N/A   Scattered Clouds
4:53 PM 90.0 °F 99.0 °F 73.9 °F 59% 30.11 in 10.0 mi ESE 11.5 mph - N/A   Clear
5:53 PM 89.1 °F 97.0 °F 73.0 °F 59% 30.11 in 10.0 mi ESE 12.7 mph - N/A   Clear
6:53 PM 88.0 °F 92.9 °F 70.0 °F 55% 30.12 in 10.0 mi SE 9.2 mph - N/A   Clear
7:53 PM 84.9 °F 91.4 °F 73.0 °F 67% 30.13 in 10.0 mi ESE 11.5 mph - N/A   Clear
8:53 PM 82.0 °F 87.9 °F 73.9 °F 76% 30.14 in 10.0 mi ESE 8.1 mph - N/A   Clear
9:53 PM 81.0 °F 86.2 °F 73.9 °F 79% 30.16 in 10.0 mi ESE 5.8 mph - N/A   Clear
10:53 PM 80.1 °F 84.5 °F 73.9 °F 81% 30.16 in 10.0 mi SE 6.9 mph - N/A   Clear
11:53 PM 79.0 °F - 75.0 °F 88% 30.16 in 10.0 mi SE 8.1 mph - N/A   Clear